Regional Weather Roundup
Issued by NWS Charleston, WV

Home | Current Version | Previous Version | Graphics & Text | Print | Product List | Glossary On
Versions: 1 2 3 4 5 6 7 8 9 10 11 12 13 14 15 16 17 18 19 20 21 22 23 24 25 26 27 28 29 30 31 32 33 34 35 36 37 38 39 40 41 42 43 44 45 46 47 48 49 50
000
ASUS41 KRLX 130110
RWRRLX
West Virginia Regional Weather Roundup
National Weather Service Charleston WV
800 PM EST FRI FEB 12 2016

Note: "fair" indicates few or no clouds below 12,000 feet with no
significant weather and/or obstructions to visibility.

WVZ003-130200-
Northern Panhandle of West Virginia

CITY           SKY/WX    TMP DP  RH WIND       PRES   REMARKS
WHEELING       LGT SNOW  20  13  74 W10G18    29.97S WCI   9
$$

WVZ009-130200-
Northwest West Virginia

CITY           SKY/WX    TMP DP  RH WIND       PRES   REMARKS
PARKERSBURG    LGT SNOW  23  19  85 SW6       30.08S FOG
$$

WVZ006-130200-
Western West Virginia

CITY           SKY/WX    TMP DP  RH WIND       PRES   REMARKS
HUNTINGTON     CLOUDY    30  17  58 W10G21    30.11R
$$

WVZ015-130200-
West Central West Virginia

CITY           SKY/WX    TMP DP  RH WIND       PRES   REMARKS
CHARLESTON     CLOUDY    29  15  56 W13       30.07R
$$

WVZ022-031-130200-
North Central West Virginia

CITY           SKY/WX    TMP DP  RH WIND       PRES   REMARKS
CLARKSBURG     LGT SNOW  21  17  84 SW7       30.01S FOG
MORGANTOWN     FLURRIES  20  13  74 S6        30.00S
$$

WVZ025-035-042-045-130200-
Southern West Virginia

CITY           SKY/WX    TMP DP  RH WIND       PRES   REMARKS
BECKLEY        FLURRIES  24  18  77 W13G21    29.96S
LOGAN          LGT SNOW  28  21  74 W15G22    30.05R
BLUEFIELD      LGT SNOW  23  18  81 W14G28    29.95R
LEWISBURG      CLOUDY    27  18  69 NW8       29.95S
$$

WVZ047-130200-
Northern Mountains of West Virginia

CITY           SKY/WX    TMP DP  RH WIND       PRES   REMARKS
ELKINS         LGT SNOW  20  14  77 W8        29.96S
$$

WVZ052-130200-
Eastern Panhandle of West Virginia

CITY           SKY/WX    TMP DP  RH WIND       PRES   REMARKS
MARTINSBURG    LGT SNOW  23  20  88 CALM      29.99S FOG
PETERSBURG     CLOUDY    28  13  52 NW17G26   29.99S
$$



USA.gov is the U.S. government's official web portal to all federal, state and local government web resources and services.